| time (UTC) | temp C | wind direction | speed KPH | gust KPH | rain 1hr cm | rain 24hr cm | rain mn cm | humidity % | barometer mb |
| 20260504020027 | 17 | 259 | 3.2 | 16.1 | 0.00 | 0.71 | 0.03 | 77 | 1008.4 |
| 20260504014524 | 17 | 200 | 0.0 | 16.1 | 0.00 | 0.86 | 0.03 | 74 | 1008.6 |
| 20260504013021 | 17 | 256 | 0.0 | 17.7 | 0.00 | 0.86 | 0.03 | 79 | 1008.7 |
| 20260504011520 | 17 | 182 | 0.0 | 9.7 | 0.00 | 0.86 | 0.03 | 80 | 1008.8 |
| 20260504010015 | 16 | 143 | 0.0 | 3.2 | 0.00 | 0.86 | 0.03 | 83 | 1009.0 |
| 20260504004529 | 16 | 191 | 0.0 | 6.4 | 0.00 | 0.91 | 0.03 | 85 | 1009.2 |
| 20260504003009 | 15 | 194 | 0.0 | 0.0 | 0.00 | 0.91 | 0.03 | 87 | 1009.2 |
| 20260504001507 | 15 | 254 | 0.0 | 0.0 | 0.00 | 0.91 | 0.03 | 89 | 1009.1 |
| 20260504000004 | 15 | 195 | 0.0 | 0.0 | 0.00 | 0.91 | 0.03 | 96 | 1009.1 |
| 20260503234503 | 14 | 167 | 0.0 | 0.0 | 0.00 | 0.91 | 0.03 | 96 | 1009.2 |
| 20260503233059 | 13 | 130 | 0.0 | 0.0 | 0.00 | 0.91 | 0.03 | 96 | 1009.2 |
| 20260503231559 | 12 | 130 | 0.0 | 0.0 | 0.00 | 0.91 | 0.03 | 96 | 1009.0 |
| 20260503230057 | 12 | 130 | 0.0 | 0.0 | 0.00 | 0.91 | 0.03 | 95 | 1009.0 |
| 20260503224555 | 11 | 130 | 0.0 | 0.0 | 0.00 | 0.91 | 0.03 | 96 | 1009.0 |
| 20260503223053 | 10 | 130 | 0.0 | 0.0 | 0.00 | 0.91 | 0.03 | 95 | 1009.0 |
| 20260503221554 | 10 | 130 | 0.0 | 0.0 | 0.00 | 0.91 | 0.03 | 95 | 1008.9 |
| 20260503220048 | 10 | 130 | 0.0 | 0.0 | 0.00 | 0.91 | 0.03 | 94 | 1008.9 |
| 20260503214546 | 10 | 130 | 0.0 | 0.0 | 0.00 | 0.91 | 0.03 | 94 | 1008.9 |
| 20260503213044 | 10 | 130 | 0.0 | 0.0 | 0.00 | 0.91 | 0.03 | 94 | 1008.7 |
| 20260503211542 | 10 | 130 | 0.0 | 0.0 | 0.03 | 0.91 | 0.03 | 94 | 1008.6 |
| 20260503210038 | 10 | 130 | 0.0 | 0.0 | 0.03 | 0.91 | 0.03 | 94 | 1008.5 |
| 20260503204535 | 11 | 130 | 0.0 | 0.0 | 0.03 | 0.91 | 0.03 | 94 | 1008.4 |
| 20260503203033 | 11 | 130 | 0.0 | 0.0 | 0.03 | 0.91 | 0.03 | 94 | 1008.4 |
| 20260503201532 | 11 | 130 | 0.0 | 0.0 | 0.00 | 0.89 | 0.00 | 94 | 1008.5 |
| 20260503200030 | 11 | 130 | 0.0 | 0.0 | 0.00 | 0.89 | 0.00 | 95 | 1008.5 |
| 20260503194533 | 11 | 130 | 0.0 | 0.0 | 0.00 | 0.89 | 0.00 | 94 | 1008.4 |
| 20260503193036 | 12 | 130 | 0.0 | 0.0 | 0.00 | 0.89 | 0.00 | 95 | 1008.3 |
| 20260503191526 | 12 | 130 | 0.0 | 0.0 | 0.00 | 0.89 | 0.00 | 95 | 1008.2 |
| 20260503190034 | 12 | 130 | 0.0 | 0.0 | 0.00 | 0.89 | 0.00 | 95 | 1008.1 |
| 20260503184524 | 12 | 130 | 0.0 | 0.0 | 0.00 | 0.89 | 0.00 | 95 | 1008.3 |
| 20260503183022 | 12 | 130 | 0.0 | 0.0 | 0.00 | 0.89 | 0.00 | 95 | 1008.2 |
| 20260503181520 | 12 | 130 | 0.0 | 0.0 | 0.00 | 0.89 | 0.00 | 95 | 1008.3 |
| 20260503180020 | 11 | 130 | 0.0 | 0.0 | 0.00 | 0.89 | 0.00 | 95 | 1008.6 |
| 20260503174521 | 11 | 130 | 0.0 | 0.0 | 0.00 | 0.89 | 0.00 | 95 | 1008.5 |
| 20260503173021 | 11 | 130 | 0.0 | 0.0 | 0.00 | 0.89 | 0.00 | 95 | 1008.5 |
| 20260503171516 | 12 | 130 | 0.0 | 0.0 | 0.00 | 0.89 | 0.00 | 94 | 1008.6 |
| 20260503140106 | 13 | 130 | 0.0 | 0.0 | 0.00 | 0.89 | 0.00 | 94 | 1009.0 |
| 20260503081545 | 16 | 277 | 0.0 | 0.0 | 0.15 | 0.84 | 0.84 | 94 | 1008.9 |
| 20260503071538 | 16 | 216 | 0.0 | 0.0 | 0.00 | 0.71 | 0.71 | 93 | 1008.9 |
| 20260503054531 | 16 | 213 | 0.0 | 0.0 | 0.05 | 0.71 | 0.71 | 94 | 1009.7 |
| 20260503053021 | 16 | 262 | 0.0 | 0.0 | 0.15 | 0.71 | 0.71 | 94 | 1009.7 |
| 20260503051520 | 16 | 32 | 0.0 | 0.0 | 0.30 | 0.71 | 0.71 | 94 | 1009.8 |
| 20260503050019 | 16 | 257 | 0.0 | 0.0 | 0.33 | 0.69 | 0.69 | 93 | 1009.9 |
| 20260503044519 | 16 | 207 | 0.0 | 0.0 | 0.36 | 0.64 | 0.64 | 93 | 1010.5 |
| 20260503043019 | 16 | 149 | 0.0 | 0.0 | 0.25 | 0.51 | 0.51 | 94 | 1010.7 |
| 20260503041518 | 16 | 22 | 0.0 | 0.0 | 0.15 | 0.41 | 0.41 | 94 | 1010.1 |
| 20260503040021 | 16 | 22 | 0.0 | 0.0 | 0.05 | 0.33 | 0.33 | 94 | 1009.5 |
| 20260503034516 | 16 | 22 | 0.0 | 0.0 | 0.05 | 0.28 | 0.28 | 94 | 1009.7 |
| 20260503033023 | 16 | 22 | 0.0 | 0.0 | 0.03 | 0.25 | 0.25 | 94 | 1009.5 |
| 20260503031515 | 16 | 15 | 0.0 | 0.0 | 0.03 | 0.25 | 0.25 | 94 | 1009.6 |
| 20260503030012 | 16 | 15 | 0.0 | 0.0 | 0.05 | 0.25 | 0.25 | 94 | 1009.9 |
| 20260503024509 | 16 | 15 | 0.0 | 0.0 | 0.05 | 0.23 | 0.23 | 94 | 1010.5 |
| 20260503023008 | 16 | 351 | 0.0 | 0.0 | 0.10 | 0.23 | 0.23 | 93 | 1010.4 |
| 20260503021503 | 16 | 294 | 0.0 | 0.0 | 0.15 | 0.23 | 0.23 | 93 | 1011.0 |